Location: Bremen
(53.0793°N, 8.8017°E)
Time: 23:23:51
(UTC+02:00)

Vanguard 2 Rocket - Pass Details

Date: 18 April 2024
Orbit: 556 x 3304 km, 32.9° (Epoch: 20 May)

Event Time Altitude Azimuth Distance (km) Brightness Sun altitude
Rises 21:24:54 0° 194° (SSW) 6,280 11.0 -8.1°
Reaches altitude 10° 21:30:29 10° 180° (S) 5,662 10.6 -8.8°
Maximum altitude 21:41:52 21° 140° (SE) 5,290 10.2 -10.3°
Drops below altitude 10° 21:54:11 10° 102° (ESE) 6,225 10.6 -11.7°
Sets 22:00:43 0° 89° (E) 7,080 11.0 -12.5°
